Location: ??????
(56.0120°N, 39.1740°E)
Time: 22:03:36
(UTC+00:00)

Cosmos 1869 Rocket - Pass Details

Date: 14 April 2026
Orbit: 598 x 625 km, 82.5° (Epoch: 13 May)

Event Time Altitude Azimuth Distance (km) Brightness Sun altitude
Rises 18:00:47 0° 197° (SSW) 2,876 6.8 -12.2°
Reaches altitude 10° 18:03:00 10° 200° (SSW) 1,979 6.0 -12.4°
Maximum altitude 18:07:22 70° 284° (WNW) 665 3.9 -12.9°
Drops below altitude 10° 18:11:49 10° 9° (N) 2,008 6.6 -13.3°
Sets 18:14:05 0° 12° (NNE) 2,922 7.5 -13.6°
